Wind_Speed
20 19 16 13 11 10 9 9 8 8 8 8 9 8 7 7 7 6 6 8 7 8 8 9 11 13 13 11 10 11 12 13 13 13 12 11 13 15 18 18 14 12
20 19 17 14 12 11 11 11 10 10 9 10 10 9 9 8 7 5 6 6 6 6 7 8 9 8 9 10 10 11 12 12 13 12 12 12 13 16 17 18 15 12
19 19 17 16 14 13 13 13 12 11 11 12 12 10 9 8 7 6 6 5 5 6 7 7 8 7 8 9 9 10 11 11 11 11 12 12 12 13 15 15 14 12
20 18 17 17 15 14 14 15 14 13 13 13 12 11 9 9 8 7 6 5 5 6 8 9 9 9 9 10 10 11 12 13 13 12 13 13 13 12 13 14 14 14
21 19 18 17 15 14 15 16 15 14 14 14 13 10 9 9 8 7 6 6 7 8 9 10 10 11 11 12 12 12 12 13 13 12 13 13 13 13 12 11 12 13
22 20 18 16 15 14 15 16 16 14 15 15 13 10 9 8 8 8 7 8 8 9 9 10 11 11 12 12 11 11 11 11 11 9 9 10 11 10 10 9 9 10
22 20 17 15 15 15 15 16 16 16 16 15 12 11 9 9 9 8 8 9 9 10 10 10 10 10 10 9 8 8 8 8 9 6 5 7 8 6 6 7 7 6
20 18 17 16 16 16 16 17 17 17 16 14 13 11 10 9 9 9 9 9 10 10 10 9 9 8 8 6 6 5 4 5 6 4 2 3 3 3 2 3 3 2
20 18 18 17 16 16 17 18 18 17 14 13 12 11 11 9 8 9 9 9 9 9 9 9 8 8 6 5 4 3 2 2 2 1 1 1 1 3 2 3 2 2
21 19 19 18 17 17 17 16 17 16 14 13 11 10 11 10 9 9 9 8 8 8 8 8 8 8 6 5 4 4 4 4 5 4 3 3 0 2 2 5 4 3
20 18 19 19 17 16 15 14 14 15 14 13 11 10 11 10 10 10 9 9 9 8 8 8 8 8 7 6 6 6 6 6 6 5 4 3 3 3 5 6 3 2
21 20 20 20 19 18 15 13 12 12 12 12 11 10 12 11 11 10 10 10 9 9 9 8 8 7 6 6 7 7 7 8 7 6 6 5 5 5 6 7 6 3
20 20 20 20 20 20 18 15 14 13 12 12 11 10 11 12 12 11 11 11 10 10 10 9 8 7 6 7 9 8 8 9 9 9 9 7 7 7 7 9 9 6
16 16 17 17 18 19 18 16 16 16 14 12 11 10 11 12 12 12 12 13 13 11 10 10 11 11 10 11 13 12 11 11 11 12 11 10 9 8 8 9 9 8
10 10 11 13 14 15 15 15 16 17 17 16 14 14 14 15 14 14 14 15 15 13 13 15 17 17 17 17 16 14 13 13 13 15 15 13 11 10 11 11 10 9
8 8 8 10 11 11 13 15 16 17 19 20 19 19 20 19 18 18 17 18 18 17 18 20 21 21 21 19 16 14 14 15 16 17 17 14 13 12 13 14 14 13
6 7 7 7 7 8 10 14 15 16 18 19 19 20 20 20 20 20 20 21 21 21 22 21 20 20 20 19 18 18 18 18 20 20 19 16 15 15 16 16 15 15
6 6 6 6 6 6 7 10 12 12 13 15 17 18 18 20 22 22 22 22 22 23 22 21 20 20 18 18 19 20 20 21 22 23 21 19 18 19 18 16 15 16
7 6 5 5 5 5 6 7 7 7 8 9 11 12 13 16 19 22 23 24 24 23 22 21 22 21 21 20 20 20 21 21 23 23 22 20 19 18 17 16 16 16
7 6 5 4 4 3 4 5 6 8 8 8 8 8 9 10 13 17 19 22 23 22 22 23 24 23 23 23 23 22 22 21 22 22 20 17 15 14 14 15 15 14
6 5 5 5 4 2 1 1 3 5 6 7 8 8 8 9 10 12 15 18 20 21 22 25 26 25 24 24 24 24 23 21 21 19 16 13 11 10 10 11 11 11
7 5 4 4 2 1 1 1 2 4 5 5 6 6 7 8 9 10 11 13 15 18 20 23 26 25 24 23 23 23 23 23 20 15 11 10 10 10 11 11 9 9
7 6 5 3 2 2 3 2 2 3 4 5 5 5 6 7 8 9 10 11 13 15 18 22 25 25 23 22 21 21 22 21 17 12 10 9 9 11 13 13 13 13
9 8 5 3 2 2 4 3 3 4 5 5 7 7 7 9 9 9 10 11 13 15 18 21 22 22 20 18 18 19 19 17 15 13 11 10 11 12 15 16 15 16
9 9 8 6 5 5 5 4 5 6 6 7 9 10 10 10 11 11 12 13 14 15 17 18 18 18 16 14 16 18 17 16 16 13 12 14 15 15 17 16 15 17
8 8 9 8 9 10 10 9 9 9 8 8 10 11 11 12 13 13 14 15 14 13 14 15 16 15 13 13 16 18 17 17 16 14 15 18 18 16 17 15 14 14
Wind_Direction
191 192 193 186 188 192 182 190 192 178 185 198 209 217 199 180 178 177 166 157 151 140 131 128 127 130 133 129 121 115 109 105 104 100 102 108 113 116 112 103 97 101
186 186 186 178 184 195 188 190 187 176 192 206 211 215 205 194 188 175 164 163 161 153 141 131 128 132 133 130 123 119 115 112 111 109 107 107 111 114 111 106 101 101
182 184 182 176 185 197 192 188 183 182 196 203 211 218 209 197 188 177 176 178 171 155 141 127 122 120 120 120 118 115 115 113 111 112 112 110 110 114 112 108 105 104
179 183 182 179 188 196 194 188 183 187 196 201 212 216 205 195 188 184 185 172 153 141 133 122 115 115 114 110 109 109 107 105 103 102 103 101 98 100 101 100 98 96
178 181 182 184 190 192 194 190 184 188 196 202 210 209 199 194 187 186 178 151 137 133 129 125 121 117 111 106 105 105 104 101 100 97 98 97 92 89 87 90 95 94
178 180 183 188 191 191 195 192 186 189 196 203 205 200 196 190 182 179 164 147 139 132 128 127 125 120 116 115 111 108 108 103 96 93 96 95 92 93 91 84 88 95
180 183 185 189 192 195 196 191 190 194 199 203 198 193 191 180 175 174 162 153 148 142 140 136 133 130 126 125 118 116 118 108 97 90 87 95 99 102 102 95 89 92
185 186 187 190 195 198 195 193 196 197 201 202 192 186 183 174 177 176 165 161 159 156 155 149 148 148 145 143 132 126 130 120 117 111 81 99 102 69 68 101 106 80
190 189 188 191 200 200 196 202 204 199 203 201 190 184 175 169 189 188 169 168 171 171 172 169 171 172 170 169 160 162 188 192 199 232 312 302 23 45 354 313 310 308
190 188 187 191 201 199 196 208 208 201 206 197 182 183 173 171 199 197 174 175 182 184 188 190 190 193 197 204 210 229 249 262 269 274 285 278 228 116 242 290 315 319
185 186 185 187 193 191 193 209 205 200 208 194 177 181 175 177 205 201 183 188 192 191 200 209 209 212 219 225 236 253 263 268 267 266 270 260 238 202 212 250 293 332
185 188 185 184 186 183 184 199 196 195 204 192 181 187 180 182 202 201 191 199 202 197 205 217 221 227 234 237 249 256 255 261 260 255 260 255 252 252 239 249 262 229
183 185 185 186 186 183 184 189 187 192 201 189 182 192 191 193 202 201 196 201 207 208 214 225 229 232 238 240 250 252 248 253 251 247 255 254 256 267 265 267 272 254
183 185 189 188 186 187 190 191 187 187 192 189 188 196 203 207 208 206 207 206 206 210 219 227 225 224 224 225 234 244 249 250 248 250 252 250 253 258 254 263 271 260
175 175 184 185 185 190 193 196 194 188 185 187 191 197 204 211 211 209 215 217 214 216 223 226 225 223 223 225 230 243 253 251 247 248 243 238 237 234 238 252 254 244
158 162 175 183 187 190 190 193 195 195 193 192 195 201 204 208 211 211 215 220 222 224 225 228 230 227 228 233 232 233 242 246 247 249 250 252 253 253 263 267 254 247
128 146 161 169 174 180 185 191 196 204 209 208 212 217 214 212 214 215 217 222 226 228 227 232 238 237 235 239 237 233 236 243 251 257 264 269 269 271 279 274 255 249
107 125 143 148 156 167 177 188 200 212 220 222 225 229 228 224 223 224 227 228 231 235 234 235 242 247 247 245 246 248 248 248 252 258 264 271 273 275 276 270 255 245
101 105 117 131 147 163 171 183 197 210 217 223 230 234 236 234 232 235 237 237 238 242 244 244 244 248 253 254 255 259 258 254 252 256 263 267 269 271 270 262 248 232
82 85 82 83 110 143 167 186 198 204 208 219 235 243 246 243 239 241 243 242 242 243 246 250 250 250 254 258 258 259 261 259 255 257 263 262 258 260 258 247 234 222
73 86 91 78 78 94 98 203 225 229 225 228 236 244 250 249 243 245 248 246 245 242 243 251 256 257 258 258 258 258 259 258 256 257 257 250 245 242 228 216 214 215
50 59 75 72 64 58 38 334 284 282 272 259 252 250 253 251 246 250 252 249 247 246 249 255 260 263 262 260 259 259 258 255 252 247 234 221 215 201 189 187 192 196
34 36 38 42 34 9 347 301 272 281 280 276 269 261 259 259 256 256 251 242 241 245 250 255 258 261 262 261 258 255 252 247 235 215 199 199 192 183 187 194 192 188
12 10 3 353 343 336 316 291 274 270 268 272 270 261 258 257 254 252 247 239 237 241 244 247 251 254 256 257 253 244 235 224 206 189 184 188 186 189 197 201 197 190
357 347 329 310 291 279 273 269 270 268 270 278 273 263 259 257 249 242 240 238 236 240 243 243 245 247 244 240 235 225 212 202 195 189 192 193 193 203 207 202 196 192
330 317 304 294 282 272 265 261 261 260 261 269 271 263 255 254 252 245 243 246 245 244 247 245 240 238 231 221 218 212 205 203 197 192 199 198 197 210 217 207 196 195
Height
1526 1529 1531 1533 1534 1535 1536 1537 1537 1537 1538 1538 1537 1537 1537 1536 1536 1536 1536 1537 1537 1538 1538 1539 1539 1539 1539 1539 1539 1540 1540 1541 1541 1542 1542 1543 1543 1544 1544 1545 1546 1547
1526 1528 1529 1532 1534 1535 1536 1536 1537 1538 1538 1538 1537 1537 1537 1536 1536 1536 1537 1537 1537 1538 1538 1539 1539 1539 1539 1539 1540 1540 1541 1541 1542 1542 1543 1543 1544 1544 1545 1546 1546 1547
1526 1527 1528 1530 1532 1533 1535 1536 1537 1538 1538 1538 1537 1537 1537 1537 1537 1537 1537 1537 1538 1538 1539 1539 1539 1539 1539 1540 1540 1540 1541 1542 1542 1543 1544 1544 1544 1545 1545 1546 1546 1547
1525 1526 1527 1529 1531 1532 1533 1535 1536 1537 1537 1537 1536 1536 1536 1536 1537 1537 1537 1537 1538 1539 1539 1539 1540 1540 1540 1540 1541 1541 1542 1542 1543 1544 1545 1545 1546 1546 1546 1547 1547 1547
1523 1525 1526 1528 1529 1531 1532 1534 1535 1536 1537 1537 1536 1536 1536 1536 1537 1537 1537 1538 1539 1539 1539 1540 1540 1541 1541 1542 1542 1543 1543 1544 1544 1545 1546 1546 1547 1547 1548 1548 1548 1548
1522 1524 1525 1527 1528 1529 1531 1532 1534 1536 1536 1537 1536 1536 1536 1537 1537 1538 1538 1539 1539 1540 1540 1540 1541 1541 1542 1542 1543 1544 1544 1545 1545 1546 1547 1547 1548 1548 1549 1549 1549 1549
1521 1523 1524 1526 1527 1529 1530 1532 1533 1534 1536 1536 1537 1537 1537 1537 1538 1538 1539 1539 1540 1540 1540 1541 1542 1542 1543 1543 1544 1545 1545 1546 1547 1547 1548 1548 1549 1549 1550 1550 1550 1550
1520 1522 1524 1525 1526 1528 1529 1531 1532 1534 1535 1536 1536 1537 1538 1538 1539 1539 1540 1540 1540 1541 1541 1542 1542 1543 1543 1544 1545 1546 1546 1547 1548 1548 1549 1549 1550 1550 1550 1550 1550 1550
1519 1521 1522 1524 1525 1527 1529 1530 1532 1533 1535 1536 1537 1538 1538 1539 1540 1540 1540 1541 1541 1541 1541 1542 1543 1543 1544 1545 1546 1547 1547 1548 1548 1549 1549 1550 1550 1551 1551 1551 1551 1551
1518 1520 1521 1523 1525 1527 1529 1531 1532 1534 1535 1536 1537 1538 1539 1540 1541 1541 1541 1541 1542 1542 1542 1542 1543 1543 1544 1545 1546 1547 1548 1548 1549 1549 1550 1550 1551 1552 1551 1551 1551 1551
1516 1519 1521 1523 1525 1528 1530 1531 1533 1535 1536 1537 1538 1538 1539 1540 1540 1541 1541 1541 1542 1542 1542 1542 1543 1544 1545 1545 1546 1547 1548 1548 1549 1549 1550 1550 1551 1551 1552 1551 1552 1552
1515 1517 1519 1522 1524 1527 1529 1532 1535 1536 1537 1537 1538 1538 1539 1540 1540 1540 1541 1541 1542 1542 1542 1543 1543 1544 1545 1546 1547 1548 1548 1548 1549 1549 1550 1550 1551 1551 1552 1552 1552 1552
1513 1515 1517 1520 1523 1525 1527 1529 1533 1535 1536 1536 1538 1538 1538 1539 1539 1539 1540 1541 1541 1542 1543 1544 1544 1545 1546 1547 1547 1547 1548 1548 1548 1549 1549 1550 1551 1551 1552 1552 1552 1553
1512 1514 1516 1518 1521 1523 1525 1526 1528 1531 1534 1535 1537 1537 1537 1537 1538 1538 1539 1539 1540 1542 1543 1544 1544 1545 1545 1546 1546 1546 1547 1547 1548 1549 1550 1550 1551 1551 1552 1552 1552 1553
1512 1514 1515 1517 1520 1522 1524 1525 1526 1528 1531 1533 1534 1534 1535 1535 1536 1537 1537 1538 1539 1541 1541 1541 1541 1542 1542 1542 1543 1544 1546 1546 1547 1548 1548 1548 1549 1550 1550 1551 1551 1551
1513 1515 1516 1518 1519 1521 1522 1524 1525 1527 1529 1530 1530 1531 1531 1533 1534 1535 1535 1536 1537 1538 1538 1538 1539 1541 1541 1541 1541 1542 1544 1545 1545 1545 1546 1547 1548 1549 1549 1549 1549 1550
1515 1516 1518 1519 1520 1521 1522 1524 1525 1526 1528 1529 1529 1530 1531 1532 1533 1533 1534 1535 1536 1535 1536 1537 1538 1540 1540 1540 1540 1540 1542 1543 1543 1543 1545 1546 1546 1547 1548 1548 1548 1548
1517 1517 1518 1519 1520 1521 1522 1523 1525 1526 1526 1528 1528 1529 1530 1531 1532 1532 1533 1534 1534 1534 1535 1536 1537 1538 1538 1538 1539 1539 1541 1541 1541 1542 1543 1544 1543 1544 1545 1545 1545 1545
1518 1518 1519 1520 1520 1521 1522 1523 1524 1525 1525 1526 1527 1528 1529 1530 1531 1531 1531 1532 1533 1533 1533 1534 1536 1537 1537 1537 1538 1538 1539 1539 1540 1540 1541 1541 1541 1541 1541 1541 1542 1543
1519 1519 1520 1520 1521 1521 1522 1523 1523 1524 1524 1525 1525 1526 1527 1528 1529 1529 1529 1530 1531 1531 1531 1532 1533 1535 1535 1535 1535 1536 1536 1537 1537 1537 1538 1539 1538 1538 1538 1539 1540 1541
1521 1520 1521 1521 1522 1522 1523 1523 1523 1523 1523 1524 1524 1524 1525 1525 1526 1527 1527 1527 1527 1528 1529 1529 1529 1531 1532 1532 1533 1533 1534 1534 1534 1534 1535 1536 1535 1536 1536 1537 1538 1539
1521 1521 1521 1521 1522 1522 1523 1523 1523 1522 1522 1522 1522 1523 1523 1523 1524 1524 1524 1525 1524 1525 1526 1526 1526 1527 1528 1529 1530 1530 1531 1531 1531 1532 1533 1533 1533 1534 1535 1535 1536 1538
1521 1520 1520 1521 1521 1522 1522 1522 1522 1522 1522 1521 1521 1521 1521 1521 1522 1522 1522 1523 1523 1523 1523 1523 1524 1524 1526 1527 1527 1528 1528 1529 1529 1530 1531 1532 1532 1532 1532 1533 1534 1536
1521 1520 1520 1520 1520 1520 1520 1520 1520 1521 1521 1521 1521 1521 1521 1521 1520 1521 1521 1521 1522 1522 1522 1522 1522 1523 1524 1525 1525 1525 1526 1527 1528 1529 1529 1531 1532 1531 1531 1532 1533 1535
1521 1521 1520 1520 1520 1519 1519 1519 1519 1519 1519 1520 1520 1520 1520 1520 1520 1520 1520 1520 1520 1521 1521 1521 1521 1521 1522 1523 1523 1524 1525 1526 1527 1528 1529 1530 1531 1531 1531 1531 1532 1533
1521 1521 1521 1520 1519 1519 1518 1518 1518 1518 1518 1518 1518 1518 1519 1519 1519 1519 1519 1519 1519 1519 1519 1519 1519 1520 1521 1521 1522 1523 1524 1525 1526 1527 1528 1529 1529 1529 1529 1530 1531 1531